Weather History for KRXE - September, 2012

Change the Weather History Date:

Thursday, September 27, 2012

  Actual Average Record
Temperature  
Mean Temperature 59 °F 51 °F  
Max Temperature 75 °F 67 °F 85 °F (2001)
Min Temperature 42 °F 36 °F 29 °F (2000)
Degree Days  
Heating Degree Days 6 14  
Month to date heating degree days 151 242  
Since 1 July heating degree days 158 315  
Cooling Degree Days 0 0  
Month to date cooling degree days 0 5  
Year to date cooling degree days 419 207  
Growing Degree Days 8 (Base 50)    
Moisture  
Dew Point 41 °F    
Average Humidity 59    
Maximum Humidity 92    
Minimum Humidity 25    
Precipitation  
Precipitation 0.00 in 0.04 in 1.12 in (2014)
Month to date precipitation 0.33 0.86  
Year to date precipitation 6.64 9.78  
Sea Level Pressure  
Sea Level Pressure 30.09 in    
Wind  
Wind Speed 4 mph (SE)    
Max Wind Speed 12 mph    
Max Gust Speed 18 mph    
Visibility 10 miles    
Events      
T = Trace of Precipitation, MM = Missing Value Source: NWS Daily Summary

Daily Weather History Graph

Daily Weather History Graph

Search for Another Location

Airport or City:

Trip Planner

Search our weather history database for the weather conditions in past years. The results will help you decide how hot, cold, wet, or windy it might be!

Date:

Astronomy

Sep. 27, 2012 Rise Set
Actual Time 7:20 AM MDT 7:14 PM MDT
Civil Twilight 6:52 AM MDT 7:43 PM MDT
Nautical Twilight 6:18 AM MDT 8:16 PM MDT
Astronomical Twilight 5:44 AM MDT 8:50 PM MDT
Moon 5:50 PM MDT (9/27) 4:50 AM MDT (9/27)
Length of Visible Light 12h 50m
Length of Day
11h 53m
Waxing Gibbous, 94% of the Moon is Illuminated
Sep 27
Waxing Gibbous
Sep 29
Full
Oct 8
Last Quarter
Oct 15
New
Oct 21
First Quarter

Hourly Weather History & Observations

Time (MDT) Temp. Windchill Dew Point Humidity Pressure Visibility Wind Dir Wind Speed Gust Speed Precip Events Conditions
12:53 AM 48.9 °F - 43.0 °F 80% 30.07 in 10.0 mi Calm Calm - N/A   Clear
1:53 AM 48.0 °F - 42.1 °F 80% 30.09 in 10.0 mi NE 3.5 mph - N/A   Clear
2:53 AM 46.9 °F - 42.1 °F 83% 30.08 in 10.0 mi Calm Calm - N/A   Clear
3:53 AM 45.0 °F 43.5 °F 42.1 °F 90% 30.09 in 10.0 mi NNE 3.5 mph - N/A   Clear
4:53 AM 45.0 °F - 42.1 °F 90% 30.09 in 10.0 mi Calm Calm - N/A   Clear
5:53 AM 44.1 °F 41.5 °F 41.0 °F 89% 30.11 in 10.0 mi ENE 4.6 mph - N/A   Clear
6:53 AM 43.0 °F 41.3 °F 39.9 °F 89% 30.12 in 10.0 mi NE 3.5 mph - N/A   Clear
7:53 AM 42.1 °F - 39.9 °F 92% 30.14 in 10.0 mi Calm Calm - N/A   Clear
8:53 AM 46.0 °F 44.8 °F 39.9 °F 79% 30.16 in 10.0 mi NE 3.5 mph - N/A   Clear
9:53 AM 54.0 °F - 43.0 °F 66% 30.16 in 10.0 mi NE 3.5 mph - N/A   Clear
10:53 AM 60.1 °F - 45.0 °F 57% 30.16 in 10.0 mi Calm Calm - N/A   Clear
12:53 PM 69.1 °F - 45.0 °F 42% 30.12 in 10.0 mi SW 6.9 mph - N/A   Clear
1:53 PM 71.1 °F - 44.1 °F 38% 30.09 in 10.0 mi SW 9.2 mph - N/A   Clear
2:53 PM 73.0 °F - 43.0 °F 34% 30.07 in 10.0 mi SW 3.5 mph - N/A   Clear
3:53 PM 73.9 °F - 39.0 °F 28% 30.06 in 10.0 mi WSW 6.9 mph - N/A   Clear
4:53 PM 73.9 °F - 37.0 °F 26% 30.04 in 10.0 mi WSW 6.9 mph - N/A   Clear
5:53 PM 73.0 °F - 36.0 °F 26% 30.04 in 10.0 mi SSW 5.8 mph - N/A   Clear
6:53 PM 70.0 °F - 35.1 °F 28% 30.04 in 10.0 mi South 5.8 mph - N/A   Clear
7:53 PM 63.0 °F - 39.9 °F 43% 30.07 in 10.0 mi SSE 4.6 mph - N/A   Clear
8:53 PM 62.1 °F - 37.9 °F 41% 30.07 in 10.0 mi South 4.6 mph - N/A   Clear
9:53 PM 55.0 °F - 41.0 °F 59% 30.08 in 10.0 mi Calm Calm - N/A   Clear
10:53 PM 50.0 °F - 41.0 °F 71% 30.09 in 10.0 mi NNE 3.5 mph - N/A   Clear
11:53 PM 50.0 °F - 39.9 °F 68% 30.08 in 10.0 mi ENE 6.9 mph - N/A   Clear